Helicity
11 9 11 4 3 4 -1 3 2 -14 -26 -20 -5 15 11 6 13 3 -6 -3 -1 -1 9 20 6 -2 32 6 -13 -12 -8 22 67 66 36 44 78 73 107 72 74 151 129 159 130 197 205
11 7 5 3 2 3 7 9 8 -7 -28 -31 -10 15 20 16 14 14 2 1 1 -0 7 28 14 17 54 -12 19 19 3 13 54 56 31 47 72 62 59 92 142 120 148 133 161 180 180
9 3 1 1 -0 -2 1 3 4 -0 -15 -25 -18 4 25 25 6 9 7 1 -4 1 -2 8 15 29 36 -9 74 35 19 35 41 25 65 23 49 89 70 127 117 197 254 143 118 120 135
7 5 -7 -11 -8 -8 -5 -0 3 1 -7 -17 -17 -4 25 27 12 8 15 16 14 9 13 2 14 44 10 20 -7 28 19 24 1 19 24 77 81 103 55 71 158 177 150 133 66 65 86
3 8 1 -8 -12 -14 -9 -8 -6 1 -3 -7 -12 -9 10 25 25 8 19 22 17 31 11 -0 30 33 7 8 1 28 -23 27 3 32 53 121 154 134 147 204 201 171 137 115 95 52 99
8 7 2 -0 -5 -19 -25 -19 -12 -4 -5 -1 -0 -6 -8 13 23 28 25 24 15 3 38 23 43 30 -0 25 21 16 42 21 29 61 107 158 185 192 223 245 170 179 121 91 84 69 115
25 15 10 6 7 1 -15 -20 -17 -10 -8 -2 1 4 -0 -6 4 36 68 55 47 51 26 31 31 23 38 17 10 26 38 46 44 98 161 175 178 211 220 190 144 105 100 71 108 102 181
42 30 24 11 5 7 5 -8 -13 -13 -9 -6 3 3 4 3 11 40 89 90 80 42 22 28 11 16 39 36 19 18 50 96 66 87 95 176 129 174 148 136 113 81 90 135 193 70 113
51 49 32 32 19 8 4 5 -0 -5 -7 -8 1 -3 -8 -3 12 48 59 57 39 19 59 28 39 37 28 57 19 41 54 100 95 86 83 144 116 107 134 125 89 72 60 108 115 162 164
55 52 48 48 42 28 21 13 10 10 4 -1 -4 5 -5 -28 42 40 57 33 27 21 96 67 33 22 50 52 2 50 37 106 106 79 92 88 13 82 67 80 89 87 114 104 165 228 160
65 62 56 58 57 48 42 30 25 18 20 8 -1 2 -3 17 46 55 39 16 16 42 145 64 46 26 55 50 46 25 79 86 128 93 150 156 98 99 104 56 73 89 83 122 136 156 167
67 64 63 69 67 62 53 46 33 30 24 25 8 1 6 54 50 42 32 7 38 151 153 124 87 60 63 37 58 101 84 143 129 103 82 105 81 86 89 115 76 111 171 177 168 218 206
79 73 73 73 77 67 62 52 44 28 24 19 15 5 30 38 64 28 32 72 174 222 137 111 88 69 51 52 52 85 58 81 90 71 81 142 87 129 145 137 124 199 210 201 195 239 175
87 76 78 79 84 76 66 62 53 39 27 23 4 13 46 55 32 47 71 128 211 194 250 197 137 95 89 69 72 106 86 40 68 107 101 60 99 153 209 191 196 178 230 282 246 222 186
93 94 89 78 83 82 75 67 65 55 44 30 18 70 58 54 48 69 134 209 177 190 174 187 113 125 109 64 103 128 103 85 72 120 39 57 140 188 166 234 227 257 208 185 227 189 161
90 93 93 88 86 78 81 76 78 77 65 42 64 61 67 59 61 93 158 155 162 155 154 136 143 149 177 170 137 124 97 82 44 92 110 136 64 162 123 137 168 248 264 250 214 203 161
89 100 98 93 90 87 87 90 89 92 100 44 75 90 67 55 77 138 182 133 140 167 122 123 145 169 144 130 119 96 103 62 71 71 56 49 105 135 167 240 225 246 215 251 238 304 264
100 105 97 87 85 84 92 101 110 101 116 82 85 128 57 89 124 115 128 110 109 118 125 105 114 131 135 123 162 145 127 80 107 54 32 -9 22 45 107 202 289 163 236 277 374 297 260
97 98 103 90 88 76 89 110 120 110 105 60 96 89 58 90 166 137 108 98 107 107 109 126 145 162 183 160 162 168 158 149 143 107 73 96 54 -75 -77 49 180 281 260 201 205 378 225
76 94 95 88 78 66 92 117 102 115 104 72 87 180 97 94 87 102 117 109 130 146 123 118 123 133 140 148 132 197 167 101 46 67 61 51 16 52 -52 20 -111 -4 91 132 203 220 315
97 98 94 90 81 100 157 96 103 138 136 68 92 154 135 178 134 129 122 104 99 101 106 128 115 101 140 157 170 142 143 180 125 75 62 39 4 31 26 27 7 -47 -73 -43 119 168 208
96 88 112 109 108 139 109 99 160 153 118 65 139 168 125 111 96 112 96 98 91 95 161 149 176 173 164 186 217 158 139 92 78 97 59 47 49 71 42 -2 -20 -45 18 -56 -127 104 123
111 105 105 106 134 127 100 124 156 125 88 75 82 69 100 98 105 129 105 116 137 110 135 181 216 186 177 201 176 155 157 130 126 132 110 105 74 90 -49 14 -10 -15 1 43 16 37 61
102 93 108 158 152 110 135 144 147 102 63 46 41 77 137 149 165 166 148 110 118 131 168 155 162 184 206 130 91 93 117 131 148 144 192 205 167 120 32 81 1 6 22 79 82 120 160
89 105 142 128 102 99 138 143 60 62 81 34 47 114 176 175 174 141 175 143 115 110 135 158 155 197 164 131 133 154 149 157 129 124 156 202 218 197 136 82 81 70 57 80 87 44 80
107 140 144 125 92 125 131 73 54 50 36 50 75 76 125 166 140 136 125 97 144 126 127 170 216 151 136 130 145 225 214 163 185 183 198 130 177 185 212 142 19 10 54 170 136 66 114
134 151 140 94 115 122 132 82 34 52 78 87 88 48 71 144 118 122 139 140 139 176 167 168 143 143 154 164 204 229 220 181 214 171 132 143 137 109 143 152 167 110 111 117 57 80 115
148 115 91 103 116 122 88 67 73 83 69 71 77 83 86 119 83 104 111 128 150 158 170 170 155 170 170 183 202 183 164 103 106 85 100 76 56 81 144 138 113 72 108 89 119 102 97
116 78 87 86 88 65 53 70 77 57 28 48 77 45 81 76 96 111 116 125 111 126 143 118 160 152 183 218 263 225 178 117 100 104 33 80 82 -13 16 90 84 40 -8 53 71 47 56
Wind_Speed
66 66 64 65 65 63 60 58 56 51 49 46 43 38 33 30 28 25 17 11 11 12 16 16 13 38 27 23 18 28 33 28 13 25 37 43 39 34 47 42 39 53 46 45 41 39 37
65 63 64 65 65 63 60 60 57 51 48 46 43 37 32 28 26 24 17 8 11 13 18 22 16 28 26 21 22 32 37 26 16 23 33 38 42 35 44 40 51 44 40 37 36 38 42
63 63 64 64 65 63 62 60 58 54 48 45 41 39 33 27 25 23 17 8 12 18 18 23 20 24 21 23 32 43 40 22 12 13 38 41 45 45 40 35 29 29 41 37 40 40 43
64 65 66 65 64 64 63 62 59 56 50 46 44 39 35 28 24 23 20 18 14 15 16 20 20 26 21 19 10 42 39 20 5 20 34 47 42 47 42 22 33 41 41 53 45 37 42
63 64 65 67 66 65 64 63 61 57 53 47 43 40 35 28 23 21 22 19 16 15 21 22 26 29 31 29 21 29 12 15 7 18 38 48 46 41 36 37 46 51 58 56 53 43 43
62 64 66 67 68 68 66 64 62 59 55 52 46 40 38 31 23 20 19 24 29 29 30 27 29 24 31 30 25 23 22 10 13 3 23 35 32 40 43 43 63 52 60 57 61 48 48
60 63 64 66 65 65 63 62 61 59 58 56 53 48 42 37 27 27 31 29 29 27 20 19 20 20 31 37 30 19 15 10 8 8 18 27 34 41 43 48 54 56 61 66 61 48 54
59 61 62 64 65 64 62 60 59 58 58 57 54 50 46 41 35 28 31 36 33 23 21 9 21 14 27 32 29 17 10 9 5 7 10 28 39 40 37 48 58 63 62 59 51 42 47
56 59 62 64 65 63 64 62 59 57 57 57 53 51 46 40 35 34 38 36 29 27 23 17 15 18 15 25 27 13 8 15 3 6 15 19 38 36 46 48 48 59 70 60 58 45 54
57 58 61 66 67 67 66 65 64 61 57 56 52 50 44 37 36 35 37 31 29 29 34 28 25 21 13 19 10 17 11 18 20 11 18 35 29 21 34 48 51 67 54 57 50 48 72
59 60 63 66 68 69 69 67 66 63 62 57 51 46 41 40 34 36 31 29 27 32 50 30 27 25 21 16 12 15 15 27 35 32 22 37 26 30 31 38 52 67 53 51 52 57 63
59 62 65 66 69 69 71 70 70 68 65 60 51 41 38 37 31 30 30 27 30 40 44 30 27 23 20 11 12 24 13 29 41 50 62 55 48 31 32 41 45 48 47 48 46 56 85
60 62 65 68 70 71 72 72 72 71 69 64 53 38 32 32 32 32 29 31 40 42 31 30 29 22 17 16 5 4 5 13 11 10 28 65 63 53 39 41 45 43 46 59 65 68 85
60 63 66 69 71 73 74 75 75 74 73 71 56 37 29 25 27 31 29 33 41 34 35 31 30 25 21 19 9 2 4 10 15 18 22 23 53 45 39 43 39 45 48 61 71 80 83
60 64 67 69 72 74 77 78 77 77 75 73 54 37 33 29 22 27 28 40 38 35 31 36 37 31 27 16 16 20 8 11 12 20 22 20 55 61 50 47 43 48 56 47 70 63 70
60 63 66 69 71 74 76 79 80 80 78 69 48 40 33 27 27 26 31 37 35 32 33 36 39 31 34 31 25 24 18 15 15 34 40 46 35 63 63 49 58 55 47 58 63 85 98
60 64 67 69 73 75 77 79 81 81 82 59 44 45 32 27 28 30 39 36 35 34 37 37 37 36 34 35 26 27 22 22 26 43 47 52 47 60 61 58 54 55 63 61 64 74 86
61 63 66 70 73 76 79 80 81 82 83 54 47 51 30 28 38 34 39 34 31 37 39 37 35 35 35 34 33 34 31 25 31 42 49 56 57 38 66 64 61 66 69 61 69 72 86
61 62 66 69 72 76 80 82 80 79 74 52 53 45 30 29 48 44 42 39 36 36 40 41 41 36 38 38 45 38 35 28 32 34 28 47 41 41 49 55 55 66 69 73 88 71 86
59 61 65 68 71 75 79 82 80 80 71 47 50 54 41 33 35 42 49 48 46 39 40 39 43 45 47 46 40 40 39 31 27 36 49 53 44 55 53 78 64 82 74 70 83 88 89
57 62 65 67 71 75 80 78 80 83 72 45 45 50 45 52 48 46 46 46 52 52 42 39 47 46 51 51 50 47 43 42 35 38 46 47 47 65 82 88 86 84 83 81 78 86 91
55 59 62 65 69 72 72 75 81 82 69 49 55 55 52 52 50 50 48 50 52 50 50 51 54 56 54 53 50 54 50 46 43 38 40 44 51 66 85 90 90 93 84 80 81 84 90
53 54 60 64 66 68 71 75 76 74 62 49 48 46 49 52 52 53 52 51 52 53 48 48 55 60 60 56 49 46 43 44 44 46 46 45 51 57 64 86 87 98 91 86 77 72 71
49 53 57 60 64 67 71 70 71 69 57 44 45 47 51 58 53 53 55 53 57 55 58 54 58 60 51 52 56 53 50 51 50 49 47 51 52 57 63 80 87 87 72 70 75 66 65
45 51 55 58 63 65 66 70 66 62 56 48 46 46 50 57 54 57 58 57 56 56 58 57 51 46 51 56 61 64 59 57 50 45 43 45 48 54 56 68 90 89 74 67 69 70 61
43 47 53 57 59 61 63 64 60 57 58 50 40 42 42 54 53 48 57 54 59 60 61 50 48 49 48 53 55 63 66 60 55 51 45 38 43 46 51 63 78 79 64 61 62 90 65
40 46 52 54 58 60 60 60 60 59 57 50 41 38 41 51 44 47 52 56 51 53 57 58 58 52 44 50 56 60 62 54 58 50 41 33 33 41 48 60 71 61 64 56 71 74 56
38 44 46 49 53 57 59 62 63 61 59 50 42 38 38 45 48 45 45 48 49 49 57 54 57 49 49 51 53 53 51 42 42 38 34 31 32 36 47 56 70 55 56 68 60 51 46
37 40 43 44 48 52 56 61 65 65 60 49 45 36 35 38 46 42 43 42 37 40 43 43 46 50 46 50 48 45 46 40 42 40 35 30 30 38 39 40 44 51 57 59 60 57 47
Wind_Direction
31 33 37 34 35 36 36 35 34 34 33 33 34 35 37 37 38 41 53 79 99 118 162 162 133 2 78 98 97 339 319 306 259 254 243 242 248 252 252 255 256 254 257 261 266 267 269
29 34 35 34 34 34 36 35 34 34 33 33 33 35 36 37 39 43 56 106 119 139 119 206 163 63 67 94 8 323 312 320 270 243 245 245 250 256 260 265 256 259 259 263 273 271 270
29 32 32 33 32 33 33 33 33 34 34 33 33 34 35 36 41 46 58 107 115 117 154 191 155 103 90 140 303 283 295 330 300 228 244 248 252 256 260 266 269 254 256 266 271 272 275
25 26 26 29 30 30 31 31 32 32 33 33 33 34 35 38 45 49 60 79 114 127 143 146 136 74 81 85 80 292 293 340 5 260 253 249 258 260 264 264 267 262 263 261 270 271 276
23 25 25 23 24 26 28 28 29 31 32 33 33 31 31 38 48 56 67 79 101 127 102 96 58 18 25 27 57 277 24 356 65 274 256 254 258 260 258 256 261 260 261 263 269 270 277
19 20 20 20 20 22 24 25 27 29 30 30 31 29 31 38 49 66 78 82 78 76 78 80 31 25 3 12 25 11 323 27 337 269 270 264 265 258 255 250 253 260 262 266 266 269 272
16 17 18 18 21 22 24 25 25 26 27 28 29 31 34 39 57 69 69 74 65 70 99 102 97 88 11 342 337 9 7 10 11 304 264 263 256 252 254 258 262 263 265 268 273 273 270
13 14 17 17 18 19 21 23 23 24 23 24 26 30 35 44 54 68 62 53 59 68 47 146 186 153 354 347 350 358 17 12 106 211 260 271 257 262 263 262 261 261 264 268 277 275 269
12 12 12 12 14 17 17 18 20 21 20 20 23 26 34 44 50 53 49 55 62 55 45 62 121 149 68 354 345 4 325 325 258 224 228 251 279 259 261 261 261 262 261 266 273 273 267
9 10 9 6 6 8 11 12 13 15 16 16 18 22 27 29 41 45 44 50 53 53 34 49 70 86 113 20 58 332 309 305 305 231 274 274 269 254 242 259 260 263 267 270 270 267 268
2 4 4 3 3 4 4 7 8 9 10 11 12 17 22 30 34 36 38 43 52 51 23 54 60 41 71 115 42 3 330 291 291 287 275 284 269 259 243 242 262 266 270 270 269 269 273
359 359 359 360 360 1 1 1 1 3 4 6 8 12 17 27 29 33 34 42 47 28 20 40 48 47 52 91 77 346 341 297 295 284 275 279 281 273 257 268 263 269 270 276 274 272 267
354 355 356 356 357 358 358 358 358 358 358 0 2 7 15 19 21 23 32 35 16 12 36 32 31 39 30 26 51 104 162 187 205 235 269 277 272 273 276 268 262 259 261 266 268 265 268
352 352 352 352 353 354 355 355 355 355 354 353 357 4 12 17 18 20 30 19 2 15 17 22 18 11 2 10 351 247 310 233 236 280 295 252 269 259 261 257 258 247 249 259 266 266 271
348 348 349 350 350 351 351 351 352 352 352 351 356 6 7 14 27 24 19 357 358 5 10 5 357 352 355 354 353 6 303 275 283 256 250 282 274 280 264 257 249 259 247 248 270 275 275
346 346 347 347 349 349 350 349 349 348 349 350 356 358 359 17 20 18 360 349 354 2 359 358 350 356 351 356 352 352 344 353 335 300 280 291 272 277 277 261 256 253 264 257 257 263 262
344 345 344 345 346 347 348 349 348 348 346 351 355 351 3 13 12 359 341 344 351 360 355 351 347 342 339 340 335 331 327 323 322 310 300 297 287 281 274 261 250 252 257 261 262 260 264
344 344 344 344 345 346 346 347 346 347 347 355 350 342 4 7 345 345 337 344 351 344 347 343 342 336 329 331 324 317 312 311 323 311 302 292 292 302 278 277 270 257 256 249 260 259 261
341 342 342 343 344 345 345 345 346 347 350 349 342 341 356 358 335 335 336 337 338 337 338 341 338 341 343 334 331 332 326 327 324 318 314 301 293 293 292 287 273 264 263 262 260 267 260
340 341 343 343 344 345 345 345 345 345 346 348 340 334 340 342 338 335 333 331 332 340 335 336 333 332 327 324 321 322 320 326 326 314 304 299 291 278 272 272 283 274 273 271 269 261 258
340 341 342 344 344 344 345 347 346 345 344 348 339 333 338 330 330 330 331 330 327 329 332 336 333 331 329 325 325 318 319 320 320 313 306 300 289 285 277 274 273 275 272 272 268 267 262
341 342 343 344 345 345 347 347 347 346 344 343 333 332 335 328 329 328 330 327 327 329 329 326 325 326 326 321 322 318 318 315 312 315 309 302 295 290 282 275 272 270 271 271 270 269 267
344 347 347 346 347 348 347 346 347 348 351 342 342 339 335 329 329 327 327 328 329 331 331 332 329 325 322 322 321 318 315 308 303 304 301 298 295 294 284 279 273 266 265 266 270 271 271
353 350 350 350 349 347 347 348 348 349 355 350 345 338 333 324 327 327 326 325 323 325 322 324 326 323 327 329 323 315 306 298 292 282 280 286 285 285 285 279 270 267 271 269 265 271 274
359 356 354 352 350 350 350 349 351 353 354 351 348 342 332 323 325 323 326 326 327 327 325 326 326 331 334 331 325 322 319 316 306 289 280 269 278 281 279 275 272 267 267 269 265 265 271
0 1 358 356 356 355 355 355 356 355 353 352 352 351 342 329 326 332 327 330 327 328 328 333 340 338 336 329 327 321 320 322 320 320 315 280 268 271 279 277 272 269 274 277 270 257 265
6 3 360 359 358 358 359 357 354 354 354 354 350 352 346 332 336 337 330 330 333 332 328 329 333 336 340 332 324 322 319 320 316 312 317 316 294 259 267 275 275 275 274 277 256 260 275
6 4 4 4 2 1 359 357 355 354 353 355 350 352 348 338 334 336 339 335 333 332 329 334 335 340 337 330 329 328 328 334 331 330 319 299 300 295 285 276 273 283 273 261 270 283 280
5 4 4 3 2 1 360 357 353 352 353 357 350 357 353 344 335 338 336 337 337 336 336 340 337 336 338 334 335 338 331 334 334 337 347 331 313 299 299 300 295 287 276 274 274 274 278